User: anonymous   Login
Location: Asheville, NC
(35.6000°N, 82.5500°W)
Time: 21:58:34
(UTC-04:00)
Language:

PicSat - Orbit

View from above orbital plane
View from above orbital plane
View from above satellite
View from above satellite

Ground track
Ground track

The orbit data is extracted from the following two-line orbital elements,

1 43131U 18004W   18226.90911169 +.00001210 +00000-0 +54557-4 0  9994
2 43131 097.5297 289.7696 0008213 248.6848 111.3511 15.22981511032658
Epoch (UTC): 14 August 2018 21:49:07
Eccentricity: 0.0008213
inclination: 97.5297°
perigee height: 491 km
apogee height: 502 km
right ascension of ascending node: 289.7696°
argument of perigee: 248.6848°
revolutions per day: 15.22981511
mean anomaly at epoch: 111.3511°
orbit number at epoch: 3265

The dashed part of the orbit path shows where the satellite is in the earth's shadow,  

DLR